EW0860 Weather Reports


Display with metric or nautical units.
time (UTC)temp
F
wind
direction
speed
MPH
gust
MPH
rain 1hr
in
rain 24hr
in
rain mn
in
humidity
%
barometer
mb
20260505011505 75 24 0.0 2.0 0.00 0.00 0.00 55 997.8
20260505010004 77 30 0.0 3.0 0.00 0.00 0.00 52 997.7
20260505004506 78 359 0.0 4.0 0.00 0.00 0.00 50 997.6
20260505003003 79 252 0.0 4.0 0.00 0.00 0.00 48 997.4
20260505001503 80 228 1.0 5.0 0.00 0.00 0.00 48 997.4
20260505000002 80 258 1.0 4.0 0.00 0.00 0.00 48 997.5
20260504234502 81 259 2.0 5.0 0.00 0.00 0.00 47 997.4
20260504233002 81 212 1.0 4.0 0.00 0.00 0.00 46 997.4
20260504231600 81 215 1.0 7.0 0.00 0.00 0.00 45 997.5
20260504230103 82 229 2.0 7.0 0.00 0.00 0.00 44 997.4
20260504224604 83 136 2.0 10.0 0.00 0.00 0.00 43 997.4
20260504223101 83 243 2.0 9.0 0.00 0.00 0.00 41 997.3
20260504221558 83 267 3.0 12.0 0.00 0.00 0.00 40 997.3
20260504220104 83 245 5.0 10.0 0.00 0.00 0.00 41 997.3
20260504214558 83 172 0.0 11.0 0.00 0.00 0.00 42 997.6
20260504213109 84 231 4.0 8.0 0.00 0.00 0.00 40 997.6
20260504211555 83 231 2.0 8.0 0.00 0.00 0.00 40 997.7
20260504210053 83 158 3.0 12.0 0.00 0.00 0.00 39 997.8
20260504204600 84 201 5.0 13.0 0.00 0.00 0.00 40 997.9
20260504203050 83 220 5.0 11.0 0.00 0.00 0.00 40 998.0
20260504201548 83 219 3.0 9.0 0.00 0.00 0.00 41 998.2
20260504200046 83 217 5.0 11.0 0.00 0.00 0.00 41 998.3
20260504194545 82 239 6.0 13.0 0.00 0.00 0.00 41 998.4
20260504193054 82 237 3.0 9.0 0.00 0.00 0.00 42 998.4
20260504191540 81 210 4.0 10.0 0.00 0.00 0.00 45 998.4
20260504190041 80 227 4.0 8.0 0.00 0.00 0.00 43 998.5
20260504184536 81 206 3.0 7.0 0.00 0.00 0.00 48 998.5
20260504183041 80 225 3.0 12.0 0.00 0.00 0.00 45 998.7
20260504181536 79 253 2.0 12.0 0.00 0.00 0.00 46 998.7
20260504180028 79 263 2.0 9.0 0.00 0.00 0.00 48 998.9
20260504174526 78 229 3.0 9.0 0.00 0.00 0.00 48 999.0
20260504173023 78 229 6.0 15.0 0.00 0.00 0.00 49 999.1
20260504171521 77 205 4.0 10.0 0.00 0.00 0.00 49 999.2
20260504081510 66 21 0.0 0.0 0.00 0.00 0.00 56 1001.8
20260504044539 67 16 0.0 4.0 0.00 0.00 0.00 59 1003.5
20260504043042 68 14 3.0 5.0 0.00 0.00 0.00 55 1003.8
20260504041535 66 26 2.0 5.0 0.00 0.00 0.00 60 1005.1
20260504040034 64 23 2.0 5.0 0.00 0.00 0.00 69 1005.5
20260504034534 64 25 0.0 2.0 0.00 0.00 0.00 73 1004.5
20260504033031 64 24 0.0 2.0 0.00 0.00 0.00 73 1004.9
20260504031531 64 24 0.0 3.0 0.00 0.00 0.00 72 1004.5
20260504030031 64 21 0.0 2.0 0.00 0.00 0.00 73 1004.9
20260504024531 64 21 0.0 2.0 0.00 0.00 0.00 72 1004.6
20260504023029 64 21 0.0 2.0 0.00 0.00 0.00 70 1004.5
20260504021533 65 21 0.0 2.0 0.00 0.00 0.00 69 1004.4
20260504020034 66 21 0.0 0.0 0.00 0.00 0.00 67 1004.3
20260504014534 67 21 0.0 0.0 0.00 0.00 0.00 65 1004.3
20260504013025 69 23 0.0 0.0 0.00 0.00 0.00 62 1004.2